Tracking 19831 objects as of 23-Aug-2019
HD Live streaming from Space Station
objects crossing your sky now

SL-23 DEB


SL-23 DEB is no longer on orbit


NORAD ID: 41112
Int'l Code: 2015-074H
Perigee: N/A
Apogee: N/A
Inclination: N/A
Period: N/A
Semi major axis: N/A
RCS: N/A
Launch date: December 11, 2015
Source: Commonwealth of Independent States (former USSR) (CIS)
Launch site: TYURATAM MISSILE AND SPACE COMPLEX (TTMTR)
Decay date: 2015-12-24

Note: This is SATELLITE DEBRIS
aabbcc
Your satellite tracking list
Your tracking list is empty




NASA's NSSDC Master Catalog

Two Line Element Set (TLE):
1 41112U 15074H   15357.80256767  .06782930  11196-4  82784-3 0  9997
2 41112  51.3683 234.9059 0202464 114.0388 248.3818 15.97334533  1875
Source of the keplerian elements: AFSPC